343  
NZUS99 KDVN 220410  
HRRRRR  
HOURLY WEATHER ROUNDUP  
NATIONAL WEATHER SERVICE QUAD CITIES IA IL  
1100 PM CDT SAT APR 21 2018  
 
NOTE: "FAIR" INDICATES FEW OR NO CLOUDS BELOW 12,000 FEET WITH  
NO SIGNIFICANT WEATHER AND/OR OBSTRUCTIONS TO VISIBILITY.  
------------------------------------------------------------------  
 
CITY SKY/WX TMP DP RH WIND PRES REMARKS  
BURLINGTON CLOUDY 52 30 43 E18G25 30.26F  
CEDAR RAPIDS FAIR 50 35 56 E13 30.31F WCI 45  
DAVENPORT CLOUDY 48 33 56 E8 30.36F WCI 44  
DUBUQUE CLOUDY 47 34 60 E3 30.36F  
IOWA CITY MOCLDY 52 32 46 E10 30.32F  
MOLINE FAIR 51 33 50 E13 30.33F  
------------------------------------------------------------------  
THE STATIONS BELOW ARE NOT NWS STATIONS AND ARE NOT SUBJECT TO NWS  
QUALITY CONTROL. SOME STATIONS DO NOT REPORT WEATHER SUCH AS FOG.  
* - STATIONS THAT REPORT TMP AND DP IN WHOLE DEGREES CELSIUS, WHICH  
ARE THEN CONVERTED TO FAHRENHEIT.  
------------------------------------------------------------------  
 
CITY SKY/WX TMP DP RH WIND PRES REMARKS  
CLINTON MOCLDY 47 37 68 NE9 30.36F WCI 43  
FAIRFIELD * CLOUDY 52 28 40 E15 30.28R  
FORT MADISON * MOCLDY 52 34 50 E13 30.28R  
FREEPORT FAIR 45 34 65 E5 30.39F WCI 42  
INDEPENDENCE * CLOUDY 49 33 53 E12 30.33F WCI 44  
KEOKUK * CLOUDY 52 32 46 NE13 30.25S  
MACOMB CLOUDY 49 34 57 NE15 30.29F WCI 43  
MONTICELLO * CLOUDY 48 36 61 E7 30.34F WCI 45  
MT PLEASANT CLOUDY 50 30 46 E16 30.28S WCI 44  
MUSCATINE * FAIR 54 30 40 E13G20 30.31F  
SAVANNA FAIR 47 35 63 E6 30.37F WCI 44  
STERLING/R.F. FAIR 47 34 60 E9 30.37S WCI 43  
VINTON * FAIR 51 34 52 E9 30.34S  
WASHINGTON * CLOUDY 52 32 46 E14 30.29F  
------------------------------------------------------------------  
 
 
CLICK HERE TO GO TO PREVIOUS BULLETINS.

The Nexlab IL Page
The Nexlab IA Page
The Nexlab MO Page Main Text Page